Regional Weather Roundup
Issued by NWS Midland/Odessa, TX

Home | Current Version | Previous Version | Text Only | Print | Product List | Glossary On
Versions: 1 2 3 4 5 6 7 8 9 10 11 12 13 14 15 16 17 18 19 20 21 22 23 24 25 26 27 28 29 30 31 32 33 34 35 36 37 38 39 40 41 42 43 44 45 46 47 48 49 50
000
ASUS44 KMAF 221710
RWRMAF
MIDLAND AREA WEATHER ROUNDUP
NATIONAL WEATHER SERVICE MIDLAND TX
1100 AM CST WED NOV 22 2017

...IN SOUTHWEST TEXAS AND SOUTHEAST NEW MEXICO...

CITY           SKY/WX    TMP DP  RH WIND       PRES   REMARKS
ALPINE         SUNNY     49  23  36 CALM      30.49F
ANDREWS        FAIR      47  26  43 CALM      30.45F
ARTESIA        SUNNY     50  27  40 S14       30.40F
BIG SPRING     CLOUDY    46  22  38 CALM      30.48S
CARLSBAD       SUNNY     52  29  41 S12       30.40F
DRYDEN           N/A     57  29  34 N8        30.43F
FORT STOCKTON  SUNNY     48  28  46 CALM      30.46F
GUAD PASS      SUNNY     49  25  39 SW14      30.44S
HOBBS          SUNNY     50  27  40 S8        30.43F
LAMESA         FAIR      46  25  42 S6        30.45F
MARFA          SUNNY     52  21  29 SE8       30.45S
MIDLAND AIRPK  SUNNY     49  24  37 CALM      30.46S
MIDLAND INTL   SUNNY     50  24  36 CALM      30.45S
ODESSA         SUNNY     50  21  32 VRB3      30.45S
PECOS          CLOUDY    52  25  35 E7        30.46F
PRESIDIO       FAIR      59  24  26 NE8       30.43F
SEMINOLE       CLOUDY    47  27  44 SE5       30.45F
SNYDER         SUNNY     44  22  41 CALM      30.45S
WINK           CLOUDY    52  27  38 SE10      30.43F
$$
...OTHER STATIONS IN TEXAS...

CITY           SKY/WX    TMP DP  RH WIND       PRES   REMARKS
ABILENE        SUNNY     46  18  32 N12       30.43F
AMARILLO       SUNNY     50  28  42 SW14      30.35F
AUSTIN         MOSUNNY   57  33  40 N12       30.33F
BROWNSVILLE    PTSUNNY   72  58  61 NW21G30   30.21R
CORPUS CHRISTI PTSUNNY   66  49  54 N20       30.26S
DALLAS FTW     PTSUNNY   48  22  35 N15       30.37F
DEL RIO        SUNNY     58  33  39 NW10      30.41F
EL PASO        MOSUNNY   57  25  29 CALM      30.41S
HOUSTON INT    MOSUNNY   64  49  57 N13       30.25F
LUBBOCK        PTSUNNY   48  24  39 SW10      30.42F
SAN ANGELO     SUNNY     50  16  25 NW7       30.44F
SAN ANTONIO    MOSUNNY   59  34  39 N10G18    30.35S
WACO           SUNNY     54  22  28 N13       30.37F
WICHITA FALLS  MOSUNNY   34  16  47 SW5       30.42F WCI  30
$$
...OTHER LOCATIONS IN NEW MEXICO...

CITY           SKY/WX    TMP DP  RH WIND       PRES   REMARKS
ALAMOGORDO     SUNNY     54  27  35 SW3       30.43F
ALBUQUERQUE    CLOUDY    46  28  49 NE3       30.44R
CANNON AFB     CLOUDY    48  27  43 SW12      30.38F
CLOVIS         CLOUDY    48  27  44 SW13      30.38F
HOLLOMAN AFB   SUNNY     56  26  31 SW3       30.44F
ROSWELL        SUNNY     51  26  37 S8        30.38F
RUIDOSO        SUNNY     52  21  30 NW8       30.43S
SANTA FE       CLOUDY    47  29  49 N13       30.42R
TRUTH OR CONSE MOSUNNY   54  23  30 CALM      30.42S
TUCUMCARI      CLOUDY    52  28  39 NW8       30.33F
$$




USA.gov is the U.S. government's official web portal to all federal, state and local government web resources and services.